Location: Bettgenhausen
(50.6463°N, 7.5681°E)
Time: 20:15:12
(UTC+00:00)

STARLINK-1065 - Pass Details

Date: 27 February 2020
Orbit: 547 x 551 km, 53.0° (Epoch: 07 April)

Event Time Altitude Azimuth Distance (km) Brightness Sun altitude
Rises 18:00:24 0° 218° (SW) 2,704 7.8 -9.3°
Reaches altitude 10° 18:02:44 10° 209° (SSW) 1,815 6.7 -9.6°
Maximum altitude 18:06:30 35° 144° (SE) 900 4.4 -10.2°
Enters shadow 18:09:24 15° 84° (E) 1,516 5.2 -10.7°
